RH
13 12 11 13 12 13 12 12 11 8 8 8 6 6 6 8 8 8 9 10 10 11 13 14 15 16 24 32 75 83 100 100 100 100 100 100 100 100 100 99 95 94 94 97 98 90 91
13 13 12 13 11 12 12 11 9 7 7 8 7 7 7 8 9 8 9 9 10 10 12 13 14 15 18 52 62 86 72 100 100 100 100 100 100 100 100 96 100 99 90 100 100 100 100
13 13 11 13 11 12 12 10 8 6 6 6 6 7 10 8 6 9 9 9 10 11 11 13 14 15 19 32 89 95 84 84 100 100 100 100 100 100 100 99 100 100 100 100 100 98 96
12 13 12 13 12 12 12 9 7 5 5 5 5 6 6 6 4 4 7 9 10 11 11 12 13 17 27 34 65 84 100 89 91 99 100 100 100 100 100 100 96 100 100 100 100 100 100
12 14 12 13 12 11 10 9 7 5 4 4 5 4 3 3 2 2 4 6 11 11 12 12 12 17 27 36 53 61 92 100 98 90 80 100 100 100 100 100 100 100 100 100 100 100 100
10 15 12 13 13 11 10 8 5 4 4 4 4 2 2 3 3 3 3 4 8 13 12 12 12 14 20 51 60 67 78 100 100 100 92 80 96 100 100 100 100 100 100 100 100 99 100
11 15 13 13 12 11 9 8 5 4 4 4 3 2 3 3 3 3 3 4 6 12 12 12 18 21 25 24 74 72 82 94 100 100 100 84 82 90 100 100 100 100 100 100 100 100 100
12 14 14 13 12 10 9 8 4 4 4 4 2 2 2 2 2 3 3 4 4 9 15 15 20 21 29 21 56 65 86 97 100 100 99 100 91 99 86 83 95 100 100 100 100 100 100
14 14 14 14 11 10 9 7 4 4 4 5 2 3 2 2 2 2 3 4 4 8 17 20 25 27 42 26 40 68 83 100 100 90 98 95 100 96 81 86 88 80 84 90 98 98 99
15 15 14 14 11 10 8 6 4 4 3 4 2 2 2 2 2 2 3 4 4 6 20 21 26 25 29 28 29 43 71 90 95 100 97 100 100 100 100 100 88 82 77 84 80 69 69
14 15 14 13 12 10 8 6 4 4 3 4 2 2 2 2 2 3 3 4 4 5 17 25 32 36 38 39 42 48 68 90 89 100 100 100 100 100 100 91 91 87 89 82 74 68 68
15 14 14 12 11 10 8 6 5 4 3 4 2 2 2 1 1 2 3 4 4 5 20 25 34 40 48 56 52 68 76 76 96 95 97 100 100 100 100 100 95 85 86 75 78 74 72
16 15 15 12 11 9 8 6 6 4 4 3 2 2 2 2 1 2 3 4 4 6 20 33 46 64 64 62 49 67 87 81 80 99 95 99 100 100 96 98 99 96 100 93 91 98 100
16 16 15 13 11 8 8 7 6 4 4 3 3 2 2 2 1 2 3 4 4 6 28 48 57 71 74 63 53 48 47 57 64 75 86 97 89 85 94 90 96 97 84 82 77 76 81
17 16 15 12 10 8 8 7 6 4 4 3 2 2 2 2 2 2 3 4 4 22 45 56 51 62 71 65 64 66 70 72 60 52 53 70 73 78 79 79 80 89 79 77 70 61 56
16 16 14 12 9 8 7 7 6 5 4 3 3 3 2 2 2 2 3 4 8 25 40 68 89 94 76 75 74 72 61 46 44 41 44 52 60 74 84 71 72 67 79 73 63 63 67
16 15 13 12 10 8 7 7 7 5 4 3 3 3 3 3 2 3 4 5 12 35 54 67 76 68 73 78 79 65 51 36 34 34 39 37 38 37 38 51 62 80 85 82 88 97 100
16 15 13 11 10 9 7 6 7 5 4 4 3 4 4 3 3 3 4 8 18 44 65 66 78 87 80 76 68 58 61 64 71 78 76 87 87 75 90 93 100 95 93 100 94 84 79
16 16 13 11 10 10 8 6 7 6 5 5 4 5 5 6 4 5 6 12 31 50 73 82 93 96 86 88 99 100 94 92 99 100 99 95 95 95 100 96 83 78 80 76 74 76 73
15 15 13 11 10 10 8 6 6 6 6 7 3 6 6 7 7 7 9 14 45 76 78 94 98 92 94 91 86 88 95 97 100 94 92 93 91 81 73 87 94 80 72 74 89 70 84
14 14 12 11 10 11 10 8 7 6 7 9 4 6 8 9 10 9 10 25 67 87 86 96 98 99 100 100 98 96 98 94 84 85 72 65 77 94 99 81 72 66 77 70 73 84 73
13 13 12 11 11 11 11 9 9 8 7 9 8 7 9 11 12 14 12 33 67 79 96 99 100 100 100 98 94 89 83 83 61 58 74 88 86 78 73 67 63 66 65 69 75 74 67
13 11 11 11 11 11 11 11 10 9 9 10 13 6 11 12 15 27 35 49 71 93 96 99 100 98 95 97 97 99 87 75 78 79 78 79 70 68 71 69 67 66 84 74 93 87 92
12 11 11 11 11 12 11 12 11 9 10 10 14 8 10 12 17 23 49 60 73 84 91 100 100 99 97 100 100 100 96 88 77 74 80 74 69 75 72 68 66 74 90 78 94 90 98
11 11 12 11 11 11 11 11 11 10 11 11 12 9 8 13 16 24 36 64 84 95 100 100 100 100 100 100 100 100 97 86 78 77 86 78 84 77 75 77 79 96 85 79 100 100 100
10 11 12 11 11 11 11 12 11 10 10 11 13 11 7 11 15 30 43 63 79 97 98 97 97 99 100 100 100 100 97 87 79 72 96 94 83 74 90 81 98 99 85 82 100 100 92
11 12 12 11 11 10 11 11 11 10 9 11 12 12 6 7 14 22 45 51 73 86 90 90 99 94 98 100 100 100 100 87 77 86 100 94 77 72 79 82 100 97 77 92 97 98 100
11 12 12 11 10 10 10 10 10 9 9 10 11 11 6 6 11 16 26 50 68 75 80 87 95 92 93 100 100 100 100 84 79 90 100 97 73 72 75 86 91 79 69 83 81 84 99
12 12 12 12 11 10 10 9 8 8 8 9 10 8 5 6 10 15 22 37 57 82 82 85 90 86 88 97 98 94 97 90 86 96 99 100 80 78 83 70 86 89 83 73 79 77 67
Wind_Speed
102 101 103 102 102 106 108 107 105 92 83 78 75 70 60 54 48 44 46 52 60 66 75 81 86 89 90 92 94 99 96 89 86 84 82 83 81 81 80 81 80 77 75 77 78 76 73
106 103 104 104 104 106 109 108 104 95 88 82 75 71 68 56 52 48 45 50 57 65 72 79 82 87 88 89 90 95 97 96 90 86 84 83 82 83 81 77 76 74 75 73 74 76 74
107 108 106 107 107 109 111 110 105 97 88 85 79 68 62 66 56 50 49 49 55 62 70 75 81 84 87 93 89 93 91 94 96 92 87 85 84 82 82 80 75 74 74 76 79 78 74
108 108 108 111 111 114 115 112 107 99 92 89 80 69 60 56 58 50 52 50 52 59 66 74 77 81 87 88 93 94 91 91 93 98 94 90 85 84 80 79 81 78 74 74 81 76 74
107 110 109 112 115 116 117 113 108 99 92 88 78 69 59 51 49 47 44 51 53 55 61 70 74 79 86 88 90 92 87 91 88 91 96 95 91 86 81 81 80 79 78 77 78 76 74
110 111 112 113 117 119 119 115 107 101 95 89 78 67 55 46 41 39 37 49 50 53 60 67 69 72 78 87 89 88 87 87 88 89 89 92 94 89 86 83 80 83 78 78 78 78 75
112 112 114 116 118 121 119 115 107 104 99 91 79 65 51 43 36 31 28 42 52 54 54 54 57 62 73 81 88 86 84 86 88 87 82 85 86 89 94 91 88 85 80 78 78 80 77
112 114 116 117 119 121 119 115 107 105 101 93 80 66 55 42 34 27 26 36 46 47 49 51 60 64 70 75 87 86 82 77 79 80 85 83 78 83 90 91 91 88 86 88 87 84 81
112 116 117 118 120 121 119 113 107 105 98 92 80 65 54 43 32 22 22 31 42 48 50 53 55 60 65 67 79 83 84 84 80 78 78 75 81 80 79 80 83 83 86 90 89 89 90
112 116 117 119 121 120 119 113 107 103 93 83 71 62 53 41 29 17 20 29 43 47 49 51 50 57 57 59 64 74 82 83 82 79 78 71 69 75 76 76 77 78 82 86 87 90 89
112 116 117 119 122 120 117 111 110 105 96 88 72 60 51 39 26 13 17 28 40 43 45 46 48 52 53 53 60 60 69 77 74 74 74 77 70 68 72 76 74 75 78 84 84 82 81
114 116 116 119 120 119 114 110 109 104 96 86 70 59 49 38 23 9 14 27 35 39 43 43 45 44 46 45 52 56 58 63 64 69 79 77 72 71 71 70 68 69 72 74 73 74 74
114 115 116 119 120 117 110 107 105 99 93 83 66 54 46 38 23 10 10 23 29 36 42 42 42 41 43 42 41 50 56 59 59 60 68 79 78 73 72 72 72 73 72 73 73 74 74
111 114 116 119 119 115 107 105 103 96 89 77 62 50 40 33 23 14 3 17 27 29 39 44 44 43 41 37 34 35 39 45 52 58 65 73 77 75 72 69 70 72 74 72 72 73 73
112 113 116 117 117 112 104 102 101 95 86 73 57 45 37 29 18 14 14 19 25 37 41 40 35 35 33 30 30 30 32 35 42 51 58 64 68 69 68 67 67 69 65 66 66 66 63
110 111 114 117 115 108 101 98 96 91 83 70 54 41 33 23 17 14 18 20 31 40 42 41 37 33 31 27 26 25 25 31 37 41 43 50 56 61 63 60 60 58 57 55 51 49 46
109 109 112 115 112 106 100 93 92 88 80 66 48 36 29 19 13 15 25 26 36 40 38 36 34 31 26 22 21 21 22 25 28 28 32 34 37 40 40 40 40 41 40 40 40 41 44
108 108 111 112 108 104 99 90 87 84 77 63 45 35 29 20 8 12 26 34 37 39 37 33 27 22 17 15 14 15 21 25 25 25 25 26 28 25 23 26 28 30 32 36 38 40 44
107 106 108 109 103 101 97 91 84 80 76 62 44 37 32 27 13 13 22 36 40 39 36 32 26 23 19 15 17 24 25 25 24 25 25 24 20 18 21 23 26 28 27 26 24 23 32
105 105 104 104 99 96 95 92 85 77 73 66 48 38 33 24 19 9 21 32 41 37 32 29 24 20 15 20 26 27 27 24 22 21 20 20 19 19 22 23 23 18 17 17 22 21 24
103 100 99 98 95 92 90 89 86 78 72 64 51 38 29 28 14 6 18 33 42 37 31 28 23 19 24 28 28 26 24 21 19 18 19 18 24 27 22 17 14 15 16 18 17 16 13
102 97 92 90 89 86 84 84 82 78 69 61 51 35 28 23 14 4 15 36 39 34 30 26 21 27 31 29 25 23 20 17 18 20 24 25 21 19 16 14 13 13 17 15 8 5 6
99 94 87 84 83 82 77 78 76 70 67 61 47 35 23 15 7 17 28 35 38 34 30 26 29 32 30 26 23 23 22 21 23 21 19 17 16 16 14 14 14 12 15 11 2 3 7
95 88 82 77 78 75 73 72 71 66 62 58 45 34 19 13 4 18 33 33 34 32 28 26 32 31 29 25 25 27 25 23 19 15 14 16 12 11 16 16 16 17 17 11 3 3 8
89 82 77 73 72 71 68 68 66 63 57 56 47 33 20 11 7 18 30 36 34 31 28 30 35 34 31 28 26 25 23 20 16 12 12 12 11 14 19 17 14 20 18 12 1 7 15
84 78 72 68 68 67 64 64 64 59 54 51 46 36 23 12 11 23 32 37 38 34 30 32 38 37 34 30 27 23 21 18 15 12 12 11 15 16 22 17 16 17 21 13 8 8 14
78 74 68 64 65 64 60 59 59 56 52 48 43 36 25 15 12 24 36 38 40 37 33 33 37 38 36 31 28 24 21 19 15 13 11 13 17 19 20 16 15 21 21 15 11 9 13
74 69 64 61 62 61 58 57 56 53 49 46 42 34 24 19 16 20 35 42 42 40 36 35 38 38 36 33 30 27 23 21 17 16 13 17 18 22 21 18 17 18 19 17 11 13 14
68 66 61 60 60 59 56 57 54 51 45 44 39 32 23 19 16 20 31 39 43 42 40 38 38 39 38 36 32 29 25 21 20 18 13 19 24 21 23 23 22 20 19 17 14 15 12
Wind_Direction
346 345 347 348 347 347 346 347 344 342 342 339 331 323 316 306 295 281 260 248 239 231 229 227 227 224 224 224 225 226 224 225 225 226 227 228 230 232 234 234 236 234 236 238 241 244 245
343 344 345 346 347 346 346 346 343 342 341 338 332 323 315 304 293 282 267 248 242 234 227 228 226 223 222 224 226 227 226 224 224 224 227 229 229 231 232 235 235 235 237 237 238 240 241
341 343 345 346 346 346 346 345 343 342 340 336 332 324 311 303 295 282 270 255 241 236 229 226 225 224 221 221 223 226 227 226 226 224 226 229 228 229 232 232 232 235 235 234 236 238 240
341 342 345 346 346 346 346 345 343 341 341 337 332 322 312 298 290 282 268 255 244 235 230 226 224 223 222 221 221 224 226 226 227 227 226 227 228 229 230 232 233 234 235 237 236 238 240
340 342 346 346 346 345 346 344 342 340 341 338 332 325 317 304 290 280 260 255 242 236 229 227 221 220 221 221 222 221 224 225 229 228 228 227 227 229 230 230 233 235 234 233 237 238 241
341 343 345 346 345 345 345 344 341 342 342 340 336 329 322 309 296 283 263 246 240 231 230 226 221 218 220 221 221 221 221 222 226 230 229 229 229 229 230 231 233 232 233 237 239 240 242
340 343 346 346 345 345 345 343 342 343 343 342 339 334 328 314 298 280 257 235 235 227 227 226 219 216 220 219 219 220 220 222 224 227 233 232 229 231 232 230 233 235 234 236 238 240 241
341 343 345 346 344 344 345 343 343 345 344 343 340 337 331 321 302 275 251 233 228 223 221 219 214 211 217 218 217 219 220 222 223 226 229 232 234 231 232 233 235 236 236 238 239 241 243
341 343 344 345 344 345 345 343 344 346 346 343 339 337 333 324 311 281 243 224 220 216 213 212 212 209 215 217 216 217 218 220 223 226 228 230 231 236 235 235 237 237 240 241 244 246 245
341 342 343 344 344 345 345 343 345 347 347 346 341 338 336 330 320 293 237 215 211 209 206 209 207 209 210 216 218 218 220 221 225 228 228 230 232 233 234 239 239 240 241 242 244 246 247
341 341 342 343 344 345 346 343 345 347 349 347 345 341 341 337 333 300 229 209 208 203 199 199 202 208 204 212 215 218 218 222 224 224 226 227 228 232 236 238 236 239 242 243 246 248 250
341 340 342 342 343 345 346 344 346 347 349 347 345 343 343 345 348 318 226 207 201 196 194 192 199 203 203 209 213 216 217 218 220 223 225 226 230 232 235 236 239 242 244 245 249 252 252
339 339 341 342 343 345 346 344 346 347 350 348 346 347 343 354 353 348 216 201 192 189 184 186 196 197 201 206 205 210 215 217 220 222 224 225 228 232 235 237 241 243 246 248 248 250 253
338 339 340 341 342 344 346 345 346 349 353 349 347 349 349 356 8 32 151 186 182 176 178 186 192 191 196 200 200 205 212 220 226 226 225 225 228 232 236 239 240 245 246 248 251 252 255
337 339 339 341 341 344 346 346 347 349 354 350 349 351 358 360 27 75 110 158 161 166 178 187 188 188 195 194 196 199 203 215 219 221 223 227 229 232 236 238 240 243 249 252 255 256 259
336 337 338 340 341 342 345 348 347 350 354 352 352 353 2 7 43 85 118 140 154 171 176 181 182 191 193 197 203 209 214 215 214 219 221 225 230 234 238 241 244 245 248 252 253 254 255
335 337 337 338 340 341 344 349 347 351 355 354 354 1 9 14 59 104 119 130 154 169 175 176 183 185 186 197 209 216 212 209 206 205 208 214 219 224 227 231 232 235 240 245 251 254 252
334 336 337 337 339 339 342 348 349 351 356 356 359 8 15 15 42 114 132 139 155 167 170 175 174 180 192 204 219 210 205 190 184 184 186 192 204 208 206 215 224 233 242 247 248 253 257
332 335 336 336 337 338 340 346 351 352 355 1 4 13 20 21 21 118 139 145 157 165 167 170 173 181 190 193 188 181 175 173 172 177 185 192 199 209 220 227 231 228 226 232 241 254 265
330 333 335 334 336 338 339 343 349 354 358 357 6 14 22 24 26 114 147 150 157 162 164 169 177 185 196 183 179 170 163 167 179 186 194 205 214 208 195 194 200 210 228 247 257 261 271
328 332 334 332 334 337 338 342 347 352 357 357 2 11 17 22 27 48 146 156 155 162 167 172 178 185 169 169 169 167 171 180 187 199 206 197 172 172 182 198 214 234 250 236 236 239 268
326 330 332 331 332 335 339 340 344 347 355 355 358 6 8 19 30 74 150 155 163 163 169 172 179 173 170 169 168 170 172 180 178 169 159 160 172 185 202 217 238 232 216 225 209 274 315
324 329 330 330 331 334 338 337 341 346 349 350 352 356 1 8 31 150 159 158 161 168 173 178 175 170 167 164 163 163 164 160 158 159 165 177 190 201 214 234 218 202 200 186 124 342 351
322 326 328 328 329 332 336 335 338 342 344 345 346 347 346 339 317 173 167 168 169 173 178 179 173 171 166 160 160 161 163 165 166 171 181 194 203 221 218 210 193 196 195 181 151 328 354
320 324 325 326 327 330 334 333 335 338 341 339 340 339 329 312 239 196 181 174 176 179 181 178 177 175 168 165 165 166 169 173 178 184 193 198 213 217 204 205 201 196 200 189 48 329 331
318 321 323 324 325 328 332 331 331 335 337 335 333 330 319 282 237 202 194 187 184 184 186 181 183 181 176 174 174 176 180 185 194 201 195 217 216 211 192 193 200 201 204 204 266 292 321
316 318 320 323 323 327 330 329 328 331 333 331 328 322 310 274 238 210 207 200 193 193 191 186 188 187 186 185 186 188 192 200 203 197 196 225 213 206 196 195 204 201 203 218 246 297 320
313 315 317 322 323 325 329 327 327 329 331 328 325 317 303 273 234 224 214 210 202 199 197 192 191 192 190 188 190 194 200 209 208 199 203 216 205 201 197 202 200 205 214 234 247 268 300
311 313 317 321 322 324 328 326 326 328 331 327 320 313 299 264 235 223 219 214 210 206 204 199 195 194 193 193 197 201 205 211 207 200 218 215 205 200 202 206 206 214 236 238 255 270 294